This is the latest recevied weather packets stored in our database for station/object PY3MO-11. If no packets are shown the sender has not sent any weather packets the latest 10 day(s).
| Time | Temp. | Humidity | Pressure | Rain* | Wind** | Luminosity | Snow |
|---|---|---|---|---|---|---|---|
| 1777580144 | 18.89° C | 51% | 1017 hPa | 0 mm | - | - | - |
| 1777579843 | 19.44° C | 50% | 1017.1 hPa | 0 mm | - | - | - |
| 1777579542 | 20° C | 48% | 1017 hPa | 0 mm | - | - | - |
| 1777579244 | 20.56° C | 48% | 1016.9 hPa | 0 mm | - | - | - |
| 1777578944 | 21.11° C | 47% | 1017.1 hPa | 0 mm | - | - | - |
| 1777578644 | 21.11° C | 48% | 1017 hPa | 0 mm | - | - | - |
| 1777578344 | 21.11° C | 47% | 1017 hPa | 0 mm | - | - | - |
| 1777578043 | 21.67° C | 48% | 1017 hPa | 0 mm | - | - | - |
| 1777577743 | 21.11° C | 49% | 1017.1 hPa | 0 mm | - | - | - |
| 1777577443 | 21.67° C | 49% | 1017.1 hPa | 0 mm | - | - | - |
| 1777577143 | 22.22° C | 47% | 1017 hPa | 0 mm | - | - | - |
| 1777576843 | 22.22° C | 44% | 1017.1 hPa | 0 mm | - | - | - |
| 1777576544 | 22.22° C | 48% | 1017.1 hPa | 0 mm | - | - | - |
| 1777576244 | 22.78° C | 43% | 1017.1 hPa | 0 mm | - | - | - |
| 1777575944 | 22.78° C | 44% | 1017.1 hPa | 0 mm | - | - | - |
| 1777575643 | 22.78° C | 44% | 1017.1 hPa | 0 mm | - | - | - |
| 1777575344 | 22.22° C | 48% | 1016.8 hPa | 0 mm | - | - | - |
| 1777575043 | 22.22° C | 43% | 1017 hPa | 0 mm | - | - | - |
| 1777574743 | 22.78° C | 42% | 1016.8 hPa | 0 mm | - | - | - |
| 1777574444 | 23.33° C | 41% | 1016.8 hPa | 0 mm | - | - | - |
| 1777574144 | 23.33° C | 40% | 1016.8 hPa | 0 mm | - | - | - |
| 1777573843 | 23.33° C | 40% | 1016.7 hPa | 0 mm | - | - | - |
| 1777573543 | 23.89° C | 40% | 1016.9 hPa | 0 mm | - | - | - |
| 1777573243 | 23.33° C | 40% | 1016.8 hPa | 0 mm | - | - | - |
| 1777572943 | 23.89° C | 39% | 1016.8 hPa | 0 mm | - | - | - |
* Rain latest hour (hover to see other rain measurements)
** Current wind speed in m/s (hover to see current wind gust speed)